www.pogodaiklimat.ru

Погода и климат >> Архив погоды >> Малайзия >> Кота-Бхару


ПОГОДА в Кота-Бхару

  • Прогноз погоды в Кота-Бхару
  • Монитор погоды в Кота-Бхару

АРХИВ ПОГОДЫ в Кота-Бхару

Время (UTC), дата Ветер
(напр.,м/с)
 
Видим.   Явления Облачность Т
(С)
Тd
(С)
f
(%)
Тe
(С)
Тes
(С)
Комфортность P
(гПа)
Po
(гПа)
Тmin
(С)
Tmax
(С)
R
(мм)
R24
(мм)
S
(см)
00 13.08 ЮЗ 2 7000 м слаб. ливневой дождь, в посл. час гроза 9/4 100 м
[Cb cap Ac trans Cs]
+25.1 +24.2 95 +35 +35 очень
душно
1009.8 1009.2 +23.7 12
03 13.08 Ю 2 10 км мгла 9/1 540 м
[Cu hum Ac trans Ci sp]
+29.0 +25.3 80 +42 +51 опасность
перегрева
1011.5 1010.9
06 13.08 СВ 3 12 км мгла 8/4 540 м
[Cu med, cong Ac trans Ci fib]
+31.5 +26.1 73 +47 +54 опасность
перегрева
1009.7 1009.1 0.0
09 13.08 СВ 4 12 км мгла 8/1 540 м
[Cu hum Ac lent Ci fib]
+31.4 +25.8 72 +46 +49 опасность
перегрева
1007.8 1007.2
12 13.08 ЮЗ 2 10 км 9/4 600 м
[Sc Ac trans Ci fib]
+29.1 +23.8 73 +40 +40 очень
душно
1010.2 1009.6 +32.0
15 13.08 З 1 10 км 9/3 600 м
[Sc Ac trans Ci fib]
+25.9 +24.2 90 +36 +36 очень
душно
1011.8 1011.2
18 13.08 ЮЗ 1 10 км зарница 9 баллов +25.3 +22.9 87 +34 +34 очень
душно
1010.8 1010.2
21 13.08 ЮЗ 1 10 км зарница 9/3 500 м
[Cb cap Ac trans Ci fib]
+25.0 +23.3 90 +33 +33 очень
душно
1010.0 1009.4
00 14.08 Ю 2 12 км 9/1 <50 м
[Cu Sc Ac trans Ci sp]
+25.2 +22.8 87 +33 +34 очень
душно
1011.0 1010.4 +24.6 0.0
03 14.08 Ю 2 12 км 9/1 540 м
[Cu hum Ac lent Ci sp]
+30.1 +25.0 74 +43 +52 опасность
перегрева
1012.2 1011.6
06 14.08 СВ 2 12 км 9/4 540 м
[Cu med, cong Ac lent Ci sp]
+32.0 +25.9 70 +47 +55 опасность
перегрева
1009.8 1009.2
09 14.08 СВ 4 12 км 9/3 500 м
[Cb cap Ac lent Ci sp]
+30.8 +25.4 73 +45 +47 опасность
перегрева
1008.1 1007.5
12 14.08 С 2 12 км зарница 9/3 500 м
[Cb cap Ac trans Ci sp]
+29.3 +25.2 79 +43 +43 опасность
перегрева
1009.7 1009.1 +32.3
15 14.08 ЮВ 1 12 км гроза без осадков 9/3 500 м
[Cb cap Ac trans Cs]
+26.5 +24.4 88 +37 +37 очень
душно
1012.5 1011.9
18 14.08 штиль 0 12 км в посл. час дождь {гроза} 9/3 600 м
[Sc Ac trans Ci sp]
+25.5 +24.6 95 +36 +36 очень
душно
1011.8 1011.2 0.2
21 14.08 Ю 2 12 км 9/3 600 м
[Sc Ac trans Ci sp]
+25.1 +23.8 93 +34 +34 очень
душно
1011.0 1010.4
00 15.08 ЮЗ 2 12 км 9/1 1000 м
[Sc Ac und Ci fib]
+25.5 +22.7 85 +34 +34 очень
душно
1012.0 1011.4 +24.7 0.2
03 15.08 ЮЗ 3 12 км 9/1 540 м
[Cu hum Ac lent Ci fib]
+30.5 +24.1 69 +42 +49 опасность
перегрева
1012.8 1012.2
06 15.08 СВ 2 14 км 8/3 540 м
[Cu med, cong Ac lent Ci fib]
+32.9 +25.5 65 +47 +57 опасность
перегрева
1010.1 1009.5 0.2
09 15.08 ЮЗ 2 10 км слаб. дождь 9/4 500 м
[Cb cap Ac trans Ci sp]
+25.3 +23.9 92 +35 +37 очень
душно
1008.6 1008.0
12 15.08 СВ 1 12 км зарница 9/1 500 м
[Cb cap Ac lent Ci sp]
+27.2 +25.1 88 +39 +39 очень
душно
1009.0 1008.4 +33.8 4
15 15.08 Ю 2 10 км 9/1 600 м
[Sc Ac trans Ci sp]
+26.3 +23.7 86 +36 +36 очень
душно
1011.1 1010.5
18 15.08 ЮЗ 2 10 км 9/3 600 м
[Sc Ac trans Ci sp]
+25.1 +23.4 90 +34 +34 очень
душно
1009.7 1009.1
21 15.08 ЮЗ 2 10 км 9/3 600 м
[Sc Ac trans Ci sp]
+24.3 +22.8 91 +32 +32 очень
душно
1009.4 1008.8
00 16.08 ЮЗ 2 12 км 9/3 1000 м
[Cu Sc Ac trans Ci fib]
+24.7 +22.5 88 +32 +33 очень
душно
1010.6 1010.0 +24.0 4
03 16.08 Ю 2 12 км 9/1 540 м
[Cu hum Ac trans Ci sp]
+30.9 +23.8 66 +42 +51 опасность
перегрева
1011.2 1010.6
06 16.08 В 4 12 км 9/4 540 м
[Cu med, cong Ac trans Ci sp]
+32.2 +24.4 63 +44 +49 опасность
перегрева
1009.6 1009.0
09 16.08 В 5 12 км 9/3 540 м
[Cu hum Ac trans Ci sp]
+31.5 +25.5 71 +46 +48 опасность
перегрева
1007.5 1006.9
12 16.08 В 2 12 км 9/4 500 м
[Sc diur, vesp Ac trans Ci fib]
+28.9 +25.6 82 +43 +43 опасность
перегрева
1009.0 1008.4 +33.3
15 16.08 ЮЗ 1 9000 м гроза, ливневой дождь 10/5 240 м
[Cb cap Ac lent Cs]
+23.9 +22.8 94 +32 +32 очень
душно
1011.6 1011.0
18 16.08 ЮЗ 1 9000 м в посл. час дождь 9/3 300 м
[Sc Ac lent Ci sp]
+24.6 +23.7 95 +33 +33 очень
душно
1010.8 1010.2 5
21 16.08 ЮЗ 1 9000 м 9/3 600 м
[Sc Ac lent Cs]
+24.5 +23.6 95 +33 +33 очень
душно
1009.9 1009.3
00 17.08 ЮЗ 2 14 км 8/3 <50 м
[Cu Sc Ac trans Ci fib]
+24.7 +23.6 94 +34 +34 очень
душно
1010.9 1010.3 +23.7 5
03 17.08 Ю 1 14 км 8/1 540 м
[Cu hum Ac trans Ci fib]
+30.4 +23.8 68 +42 +52 опасность
перегрева
1011.5 1010.9
06 17.08 З 3 14 км 8/3 540 м
[Cu hum Ac trans Ci sp]
+33.4 +25.1 62 +47 +56 опасность
перегрева
1009.1 1008.5
09 17.08 В 6 12 км мгла 8/1 540 м
[Cu hum Ac trans Ci fib]
+31.5 +25.1 69 +45 +47 опасность
перегрева
1007.7 1007.1
12 17.08 З 4 10 км зарница 9/4 500 м
[Cb cap Ac trans Ci sp]
+28.1 +22.6 72 +37 +37 очень
душно
1010.1 1009.5 +33.6
15 17.08 Ю 5 10 км гроза без осадков 9/5 500 м
[Cb cap Ac trans Ci sp]
+24.8 +22.6 88 +33 +33 очень
душно
1012.7 1012.1
18 17.08 ЮЗ 2 10 км слаб. ливневой дождь, в посл. час гроза 9/4 600 м
[Sc Ac trans Ci fib]
+23.3 +22.5 95 +32 +32 очень
душно
1011.1 1010.5 29
21 17.08 Ю 3 10 км 9/1 600 м
[Sc Ac trans Ci fib]
+23.3 +21.9 92 +32 +32 очень
душно
1010.7 1010.1
00 18.08 Ю 2 14 км 9/1 1000 м
[Sc Ac trans Ci fib]
+23.7 +22.1 91 +31 +31 очень
душно
1012.4 1011.8 +22.6 29
03 18.08 ЮВ 2 10 км мгла 9/1 540 м
[Cu hum Ac trans Ci fib]
+29.2 +23.1 70 +39 +48 очень
душно
1012.5 1011.9
06 18.08 СВ 3 12 км 9/3 540 м
[Cu hum Ac trans Ci sp]
+31.5 +24.5 66 +44 +51 опасность
перегрева
1010.7 1010.1
09 18.08 СВ 4 12 км 8/3 540 м
[Cu med, cong Ac lent Ci ing]
+31.0 +23.9 66 +43 +45 опасность
перегрева
1009.0 1008.4
12 18.08 В 2 12 км зарница 8/3 500 м
[Cb cap Ac trans Ci fib]
+28.5 +25.0 81 +41 +41 опасность
перегрева
1010.4 1009.8 +32.1
15 18.08 штиль 0 12 км 8/3 600 м
[Sc Ac trans Ci fib]
+26.8 +25.0 90 +39 +39 очень
душно
1012.4 1011.8
18 18.08 З 1 10 км 8/3 600 м
[Sc Ac trans Ci fib]
+25.9 +24.9 94 +37 +37 очень
душно
1011.6 1011.0
21 18.08 ЮЗ 2 10 км 8/3 600 м
[Sc Ac trans Ci sp]
+24.9 +23.3 91 +33 +33 очень
душно
1010.6 1010.0
00 19.08 Ю 2 10 км 8/1 540 м
[Cu hum Ac lent Ci fib]
+25.4 +23.5 89 +34 +35 очень
душно
1011.0 1010.4 +23.7
03 19.08 ЮЗ 2 12 км 8/1 540 м
[Cu hum Ac lent Ci fib]
+30.5 +24.1 69 +42 +51 опасность
перегрева
1011.5 1010.9
06 19.08 С 4 12 км 8/4 540 м
[Cu hum Ac lent Ci fib]
+31.9 +24.7 66 +45 +51 опасность
перегрева
1009.3 1008.7
09 19.08 СВ 4 12 км 8/1 540 м
[Cu hum Ac lent Ci fib]
+31.8 +23.8 63 +43 +46 опасность
перегрева
1007.4 1006.8
12 19.08 В 2 12 км 8/3 600 м
[Sc diur, vesp Ac lent Ci fib]
+28.9 +24.6 78 +41 +41 опасность
перегрева
1008.7 1008.1 +33.2
15 19.08 В 1 12 км 9/1 600 м
[Sc Ac lent Ci fib]
+28.0 +24.8 83 +40 +40 очень
душно
1010.5 1009.9
18 19.08 штиль 0 12 км 9/1 600 м
[Sc Ac lent Ci fib]
+26.9 +25.1 90 +39 +39 очень
душно
1009.7 1009.1
21 19.08 штиль 0 10 км 9/3 600 м
[Sc Ac trans Ci sp]
+26.3 +25.0 93 +38 +38 очень
душно
1009.2 1008.6

 

Местоположение метеостанции Кота-Бхару (Малайзия): широта 6.17 долгота 102.28 высота над уровнем моря 5 м.

В архиве по умолчанию представлена погода в Кота-Бхару за последнюю неделю. Архивные данные за месяц целиком и за предыдущие месяцы, начиная с января 2011 года, Вы можете получить, выбрав интересующий диапазон дат из раскрывающегося списка и нажав кнопку "Ввод!".


*Определитесь, кто Вы:
робот инопланетянин человек

Внимание! Время в таблицах - всемирное. Для получения местного времени необходимо прибавить поправку, которая равна 7 ч.

Смотрите также архив погоды в соседних городах и на ближайших метеорологических станциях:

Погода в Наратхивате (Таиланд) (59 км)
Погода в Яла Агромете (Таиланд) (117 км)
Погода в Куала-Тренггану (Малайзия) (126 км)
Погода в Паттани (Таиланд) (142 км)
Погода в Мерсинге (Малайзия) (189 км)
Погода в Алор Стар (Малайзия) (208 км)
Погода на Нагорье Кэмерон (Малайзия) (214 км)
Погода в Сонгкхле (Таиланд) (217 км)
Погода в Садао (Таиланд) (219 км)
Погода в Ипохе (Малайзия) (221 км)

Пояснения к столбцам:

Ветер - указаны скорость ветра в м/с - средняя за 10 мин, порывы в срок и между сроками (в фигурных скобках) и направление, откуда дует ветер: С - северный, СВ - северо-восточный, В - восточный, ЮВ - юго-восточный, Ю - южный, ЮЗ - юго-западный, З - западный, СЗ - северо-западный.
Видимость - горизонтальная дальность видимости в метрах или километрах. При видимости от 1 до 10 км при отсутствии осадков обычно наблюдается дымка, при ухудшении видимости до 1 км и менее - туман. В сухую погоду видимость может ухудшаться дымом, пылью или мглою.
Явления - указаны атмосферные явления, наблюдавшиеся в срок или в последний час перед сроком; фигурными скобками обозначены явления, наблюдавшиеся между сроками (за 1-3 часа до срока); квадратными скобками обозначены град или гололедные отложения с указанием их диаметра в мм.
Облачность - указаны через наклонную черту общая и нижняя облачность в баллах и высота нижней границы облаков в метрах; квадратными скобками обозначены формы облаков: Ci - перистые, Cs - перисто-слоистые, Cc - перисто-кучевые, Ac - высококучевые, As - высокослоистые, Sc - слоисто-кучевые, Ns - слоисто-дождевые, Cu - кучевые, Cb - кучево-дождевые. Подробнее классификацию облаков см. в Атласе облаков (PDF).
T - Температура воздуха - температура, измеренная на высоте 2 м над землей.
Td - Температура точки росы - температура, при понижении до которой содержащийся в воздухе водяной пар достигнет насыщения.
f - Относительная влажность воздуха - влажноcть воздуха, измеренная на высоте 2 м над землей.
Te - Эффективная температура - температура, которую ощущает одетый по сезону человек в тени. Характеристика душности погоды. При расчете учитывается влияние влажности воздуха и скорости ветра на теплоощущения человека.
Tes - Эффективная температура на солнце - температура, которую ощущает человек, с поправкой на солнечный нагрев. Характеристика знойности погоды. Зависит от высоты солнца над горизонтом, облачности и скорости ветра. Ночью, в пасмурную погоду, а также при ветре 12 м/с и более поправка равна нулю.
P - Атмосферное давление - приведенное к уровню моря атмосферное давление.
Po - Атмосферное давление - измеренное на уровне метеостанции атмосферное давление.
Tmin - Минимальная температура - минимум температуры воздуха на высоте 2 м над землей.
Tmax - Максимальная температура - максимум температуры воздуха на высоте 2 м над землей.
R - Количество осадков - Количество выпавших осадков за период времени, мм. При наведении курсора мыши на число - период времени, за который выпало указанное количество осадков.
R24 - Количество осадков - Количество выпавших осадков за 24 часа, мм.
S - Снежный покров - Высота снежного покрова, см. При наведении курсора мыши на число - состояние снежного покрова и степень покрытия местности в баллах.